Location: Melque
(41.0517°N, 4.4694°W)
Time: 16:40:35
(UTC+00:00)

Cosmos 1606 Rocket - Pass Details

Date: 11 December 2025
Orbit: 596 x 625 km, 82.5° (Epoch: 16 January)

Event Time Altitude Azimuth Distance (km) Brightness Sun altitude
Rises 17:52:12 0° 187° (S) 2,874 7.4 -11.5°
Reaches altitude 10° 17:54:24 10° 187° (S) 1,977 6.5 -11.9°
Maximum altitude 17:58:47 88° 268° (W) 628 3.6 -12.7°
Drops below altitude 10° 18:03:15 10° 7° (N) 2,005 5.9 -13.5°
Sets 18:05:30 0° 8° (N) 2,917 6.7 -13.9°
